Location: Tyumen
(57.1527°N, 65.5323°E)
Time: 03:09:08
(UTC+05:00)

ISS - Visible Passes

Search period start: 19 October 2019 00:00
Search period end: 29 October 2019 00:00
Orbit: 411 x 421 km, 51.6° (Epoch: 19 October)

Date Brightness Start Highest point End Pass type
(mag) Time Alt. Az. Time Alt. Az. Time Alt. Az.
26 Oct -0.9 06:45:43 10° S 06:47:46 15° SSE 06:49:49 10° ESE visible
27 Oct -0.8 05:58:11 10° SSE 05:59:24 12° SSE 06:00:38 10° SE visible
28 Oct -1.5 06:44:11 10° SW 06:46:53 22° SSE 06:49:35 10° ESE visible
